Tracking 29892 objects as of 21-Nov-2024
HD Live streaming from Space Station
objects crossing your sky now

STARLINK-6360

Track STARLINK-6360 now!
10-day predictions
STARLINK-6360 is classified as:


NORAD ID: 57235
Int'l Code: 2023-094T
Perigee: 563.8 km
Apogee: 568.5 km
Inclination: 43.0 °
Period: 95.8 minutes
Semi major axis: 6937 km
RCS: Unknown
Launch date: July 7, 2023
Source: United States (US)
Launch site: AIR FORCE WESTERN TEST RANGE (AFWTR)
Your satellite tracking list
Your tracking list is empty




NASA's NSSDC Master Catalog

Two Line Element Set (TLE):
1 57235U 23094T   24325.77448916 -.00006454  00000-0 -46282-3 0  9998
2 57235  43.0079  85.2087 0003358 280.6895  79.3570 15.02550937 75835
Source of the keplerian elements: AFSPC